Theta_e
313 313 313 313 313 312 312 312 312 312 312 311 311 311 311 311 311 310 310 310 311 311 311 311 311 312 312 312 312 312 311 304 301 298 295 298 306 313 320 321 325 326 320 307 303 301 298 295 299 298 300 299 299 300 301 303 298 296 291 283 283 281 284 287 289 289 292 292 294 295 295 308 317 323 327 331 327 327 327 326 329 333 332 334 335 338 338 339
313 313 313 312 312 312 312 312 312 312 312 311 311 311 311 311 310 310 311 310 310 310 311 312 312 311 312 311 312 312 307 302 297 296 296 305 314 317 318 319 322 325 317 303 300 297 297 296 295 297 298 299 299 299 301 299 300 293 286 286 286 283 288 291 290 291 293 293 294 295 294 297 314 323 325 323 321 323 323 325 329 328 331 334 335 336 337 337
312 313 314 314 312 312 312 312 312 312 311 311 311 311 311 310 310 310 310 310 310 310 310 311 312 311 311 311 311 311 303 297 295 293 299 315 317 318 319 321 322 323 306 304 300 300 299 297 294 296 295 294 296 297 298 298 299 293 290 286 284 288 289 290 292 295 294 295 295 294 296 315 323 321 326 322 321 323 321 322 326 326 326 330 332 335 335 335
311 312 312 313 313 312 312 312 312 312 312 311 311 311 311 310 310 310 310 310 310 310 311 312 312 311 311 311 311 307 299 294 288 295 297 320 319 318 318 320 324 326 306 306 299 301 298 296 295 295 295 295 293 298 296 297 296 293 293 288 289 289 291 294 294 295 295 295 295 294 296 321 322 320 325 323 320 320 323 326 325 325 328 329 332 333 334 333
310 311 311 312 313 314 313 312 311 312 312 311 311 311 311 310 310 309 309 309 310 311 311 311 310 310 310 310 311 303 296 283 288 292 303 329 329 325 322 320 324 318 309 302 299 298 298 294 294 294 293 291 293 295 294 295 294 291 292 290 292 290 292 295 294 294 295 295 294 294 313 319 315 326 324 323 317 316 322 327 328 330 331 330 330 332 333 332
310 310 311 311 312 312 313 313 312 312 312 312 311 311 311 310 310 310 310 309 309 311 311 311 311 310 310 311 304 300 293 281 291 299 321 332 330 330 326 322 325 314 304 298 297 294 297 296 295 294 291 291 292 292 293 294 297 292 291 290 290 293 293 294 295 296 294 295 294 293 295 308 322 322 325 322 320 323 330 330 331 332 333 333 333 332 331 331
309 309 310 311 311 312 313 313 313 311 311 312 311 311 311 310 310 310 310 310 310 309 310 310 310 310 310 309 301 299 290 292 298 300 321 330 330 332 328 324 326 310 304 297 293 296 293 293 293 290 290 290 290 291 293 296 295 293 292 289 293 292 293 294 296 295 292 294 295 296 303 306 321 319 322 324 327 329 331 332 333 333 334 334 331 332 330 330
308 309 309 310 310 310 312 313 313 312 311 311 311 311 310 310 310 310 310 310 310 309 309 309 310 309 309 301 296 292 291 291 298 301 320 326 324 327 325 317 311 307 302 298 293 293 292 294 295 291 290 291 291 293 294 294 291 292 291 291 293 294 292 293 293 292 294 293 295 309 309 313 319 322 326 324 328 330 331 332 332 333 332 332 331 330 329 329
308 308 309 309 310 310 310 310 313 313 312 311 311 311 311 310 310 310 310 310 310 310 309 310 309 309 309 300 292 288 289 299 303 304 307 309 314 315 315 309 306 304 301 295 292 292 295 291 293 295 292 292 293 294 292 293 289 291 294 294 293 294 295 294 293 293 294 295 311 320 320 322 324 327 322 322 329 332 333 332 332 331 330 329 328 328 328 328
308 308 308 308 309 309 310 310 310 312 312 312 311 311 311 310 310 309 310 309 310 309 309 309 309 309 303 297 294 286 294 300 304 303 302 303 308 310 304 307 304 301 299 293 292 292 294 290 295 294 293 294 293 293 292 292 291 292 292 292 293 294 293 293 293 293 294 296 310 318 319 320 320 322 318 325 323 333 331 331 331 330 328 328 328 328 329 329
307 308 308 308 308 309 309 309 310 312 312 312 311 311 310 310 309 309 309 309 309 309 308 308 310 307 299 298 290 288 298 304 304 303 302 302 303 305 299 302 302 300 298 292 293 293 291 292 293 296 297 292 293 293 293 294 295 292 293 292 290 291 291 292 291 292 293 296 310 321 309 306 318 322 320 320 325 331 329 329 329 328 328 328 328 328 328 329
307 307 307 307 308 308 308 309 310 311 312 313 312 311 310 310 309 309 309 309 309 310 309 309 309 305 301 297 292 293 303 303 304 304 303 302 300 303 302 300 299 299 297 294 293 293 293 294 295 296 291 295 291 293 292 293 293 293 293 290 289 289 291 290 293 294 294 296 317 309 308 301 312 315 319 321 325 324 322 325 327 327 327 328 328 328 328 328
307 307 307 307 307 307 308 308 309 310 312 311 312 311 310 310 309 308 309 309 309 309 309 310 308 304 298 289 294 301 304 304 303 303 302 301 301 303 304 301 301 298 299 297 294 295 294 295 295 292 295 291 290 290 294 294 292 294 290 290 289 284 287 290 293 293 295 299 319 302 295 290 307 315 321 323 323 323 321 323 326 326 327 327 327 328 328 330
307 307 307 307 307 307 308 308 308 309 311 312 311 310 310 309 309 308 308 308 309 309 309 309 307 302 297 291 297 301 303 303 303 302 301 304 299 298 302 304 301 299 299 298 296 295 296 294 295 295 296 292 291 295 291 288 290 289 290 286 285 285 285 288 292 293 293 295 313 296 286 297 311 316 322 323 323 322 322 325 325 325 325 326 327 327 327 329
307 306 306 306 307 307 307 308 308 308 310 311 311 310 310 309 308 308 308 308 308 308 308 307 303 297 290 292 300 303 312 309 302 301 303 299 297 295 298 301 300 300 298 298 295 297 296 296 295 292 290 294 294 293 286 284 284 287 287 281 281 284 282 287 292 292 293 294 294 294 290 303 313 317 322 322 324 325 322 322 324 324 325 325 326 326 327 328
307 306 306 306 306 306 307 307 307 308 309 310 310 310 309 309 308 308 308 307 309 307 305 300 297 296 290 285 293 310 304 298 298 302 304 301 296 295 295 301 299 299 299 297 298 298 297 296 291 288 292 292 287 282 281 285 283 282 285 280 284 284 282 287 292 291 293 292 294 293 288 308 312 319 322 323 322 321 319 319 321 324 325 325 326 326 326 327
306 306 306 306 306 306 306 307 307 307 308 309 310 310 309 308 307 307 307 307 306 307 303 296 298 297 284 293 299 293 292 297 298 301 298 301 298 296 301 300 299 295 296 297 296 295 295 293 293 291 290 284 284 284 282 280 278 283 282 282 282 284 283 284 288 290 293 293 292 301 308 309 314 318 321 322 321 319 318 319 323 324 325 325 325 325 326 326
306 306 306 306 306 306 306 306 306 307 308 309 309 308 306 307 308 307 305 305 304 303 301 302 299 294 288 294 286 288 294 295 299 300 298 298 298 296 295 296 297 295 296 294 294 291 293 290 289 284 286 287 286 283 283 279 281 278 282 283 284 284 284 284 286 290 296 300 298 299 304 305 313 317 320 321 323 321 319 320 324 324 324 324 324 325 325 326
305 306 306 305 305 306 306 306 306 306 307 308 309 308 307 307 302 299 300 300 292 286 282 285 289 278 279 287 291 294 295 298 299 299 298 297 297 297 297 297 297 296 292 291 291 291 291 287 289 283 283 282 285 285 284 283 283 283 281 281 281 284 285 285 287 289 297 300 301 299 301 306 311 314 315 315 316 319 323 324 324 324 323 324 324 325 325 325
305 305 305 305 305 305 305 305 306 306 307 305 305 302 296 290 289 290 297 297 292 288 287 288 293 291 290 290 292 296 299 299 296 297 298 298 297 295 294 293 293 294 291 289 289 289 291 284 283 283 284 284 285 286 287 285 285 284 283 283 283 283 284 285 287 291 301 300 305 303 304 308 311 311 311 313 314 316 312 315 321 322 322 323 323 323 323 323
305 305 305 305 305 305 305 305 305 306 307 305 302 297 287 286 282 282 291 292 294 294 292 292 292 291 290 292 295 294 290 291 295 294 297 301 296 295 291 291 290 289 290 290 289 293 291 283 283 283 284 285 286 286 286 285 286 285 282 282 283 284 285 288 287 298 307 300 306 307 308 309 308 309 310 311 313 312 313 313 317 318 321 321 321 320 321 321
304 304 304 304 305 305 305 305 306 306 307 304 300 294 293 292 294 297 291 283 290 293 293 292 294 292 296 295 295 296 293 289 291 293 296 297 293 295 290 288 285 287 288 289 289 287 284 283 284 285 286 286 286 286 287 287 286 285 285 283 284 282 283 288 297 305 308 308 306 310 306 306 308 309 312 310 310 312 315 313 314 314 316 318 319 319 319 320
304 304 304 305 304 305 305 305 305 306 301 298 296 296 293 299 300 300 295 288 285 292 292 291 289 290 291 295 295 297 288 286 286 291 294 296 291 294 289 286 285 285 288 289 287 284 283 284 287 287 286 287 285 285 286 286 286 283 283 284 282 283 284 284 295 304 308 307 307 307 304 305 309 310 310 312 311 312 315 314 314 315 316 316 317 318 318 318
304 304 304 304 304 304 304 304 304 302 301 300 298 297 302 301 301 300 292 281 280 287 292 293 292 291 290 289 294 293 288 287 288 289 297 294 292 291 290 286 284 285 287 287 287 286 285 287 289 287 286 288 285 285 286 285 284 285 284 281 283 286 285 287 296 303 308 312 311 307 304 304 307 305 307 310 314 313 313 313 312 315 316 316 317 318 319 317
304 304 304 304 304 304 303 303 299 299 303 301 299 303 305 303 302 301 289 283 282 285 295 293 295 294 294 298 294 289 288 288 290 293 296 295 290 290 287 288 286 283 285 287 286 286 286 287 290 288 285 286 286 283 285 285 281 284 284 285 284 288 299 300 301 301 300 302 306 304 294 296 302 306 307 309 310 310 313 312 311 312 314 315 314 315 317 318
304 304 303 304 304 303 302 295 296 301 299 295 299 304 303 303 302 301 287 279 277 283 291 284 297 290 300 291 292 289 289 284 290 293 295 295 297 293 289 287 288 283 284 288 287 285 286 290 291 288 287 285 286 284 284 287 282 282 284 286 286 297 301 298 297 298 292 293 304 303 289 288 300 302 304 307 308 308 311 311 312 312 313 314 314 314 315 315
304 304 303 303 303 302 294 289 300 300 291 294 301 302 302 301 303 299 283 274 271 284 282 291 289 288 296 292 291 290 278 281 292 292 293 298 294 295 289 284 288 288 288 289 285 284 289 288 288 288 287 286 284 284 285 287 284 281 284 287 290 300 299 297 295 294 292 299 301 299 293 290 292 299 305 308 306 306 307 308 310 311 313 313 313 314 314 315
304 303 303 303 303 303 297 297 297 293 295 299 303 301 302 302 302 298 285 268 264 288 283 286 289 297 293 292 293 287 286 291 286 289 294 295 295 292 289 285 285 286 289 287 281 286 290 286 287 286 286 285 285 284 286 288 285 283 285 288 289 299 299 297 293 290 290 292 289 295 297 289 292 299 306 307 303 304 305 306 308 310 311 312 313 314 314 315
303 304 303 304 304 304 303 299 297 294 301 302 304 303 302 305 298 285 274 265 282 282 299 287 299 292 289 291 289 290 288 290 286 289 293 296 295 291 286 285 286 288 289 289 283 287 290 290 289 290 287 286 285 287 289 289 287 287 287 288 288 287 293 297 290 290 289 286 281 292 293 282 281 299 301 306 303 302 304 305 308 310 311 311 312 313 314 314
304 303 304 303 303 302 301 302 298 303 305 304 304 303 303 299 291 279 272 263 285 278 288 290 289 284 288 285 285 287 285 286 289 290 292 290 293 293 290 290 288 288 287 288 287 287 290 295 295 290 288 288 287 287 289 290 289 288 289 287 285 283 284 285 283 286 286 281 281 292 295 289 283 296 300 299 301 304 304 305 307 309 310 312 312 312 312 313
304 304 304 304 299 301 301 294 300 305 305 304 301 300 298 290 280 272 267 274 287 285 289 287 285 289 285 283 281 285 285 286 287 291 288 291 290 289 288 288 288 286 284 285 286 288 290 290 290 290 294 291 290 288 289 290 288 290 285 284 283 282 280 280 280 284 279 275 278 289 295 290 283 284 301 304 306 308 306 304 306 307 309 310 311 312 312 312
304 302 303 302 304 305 296 294 302 305 303 303 299 295 289 276 279 271 268 289 277 282 282 282 285 285 285 286 283 283 283 285 286 288 287 288 285 284 286 282 284 278 279 280 280 287 286 287 286 290 297 292 288 287 286 287 288 286 283 284 281 275 276 274 281 275 274 277 283 286 293 288 286 285 296 304 304 309 308 308 308 308 308 309 310 310 311 312
304 303 303 304 303 297 299 301 303 302 302 297 288 290 280 272 268 276 279 282 280 288 285 287 284 285 285 283 281 284 285 282 285 287 288 286 286 285 285 283 283 282 277 280 280 282 282 285 287 289 291 294 291 286 280 282 284 284 284 280 279 274 273 268 270 272 277 280 283 286 293 287 286 290 296 298 303 308 309 310 311 309 308 309 309 310 310 311
304 303 299 301 300 299 301 302 303 303 300 294 288 285 277 269 272 287 283 283 285 290 289 284 285 285 284 281 282 285 280 284 285 285 288 284 286 284 283 283 286 284 280 282 281 280 275 279 285 287 284 289 291 288 286 281 282 284 283 284 280 275 274 269 273 272 274 277 280 288 289 280 285 290 299 300 303 309 310 310 310 309 309 309 310 310 309 310
303 299 296 296 296 299 301 302 301 301 297 288 287 280 272 272 279 278 281 284 288 288 285 288 283 282 281 282 283 285 284 281 285 284 284 284 283 284 283 283 284 286 285 282 281 279 282 281 283 289 289 291 289 289 288 284 284 283 284 284 280 283 278 279 276 277 277 279 279 285 284 290 291 301 304 304 308 308 309 308 308 307 308 308 308 307 308 308
298 293 295 292 296 297 299 303 302 300 296 290 281 276 273 279 278 284 282 289 288 284 284 283 283 280 278 279 283 284 286 284 284 284 282 284 284 283 283 283 283 286 286 279 280 279 281 280 286 289 289 290 291 290 289 289 280 283 285 282 284 285 282 274 276 279 275 277 278 285 289 294 301 302 303 305 306 306 307 306 306 306 306 307 306 306 307 308
291 295 291 293 296 299 303 304 303 300 295 289 280 275 282 282 286 285 289 286 287 287 283 276 278 278 277 277 279 282 284 285 283 280 278 282 281 284 283 284 285 286 290 286 282 282 280 278 285 286 287 290 290 293 291 292 288 284 281 284 287 289 286 281 276 272 270 274 277 286 287 289 288 285 302 303 302 303 304 304 304 305 305 305 305 305 306 307
293 293 296 295 297 301 305 305 303 296 292 286 280 282 287 282 290 288 290 288 288 286 282 280 282 280 278 277 278 282 283 281 280 281 278 283 278 285 283 284 286 288 289 287 285 285 283 279 283 288 290 291 290 290 287 290 290 288 285 289 288 278 280 279 276 273 271 271 273 283 289 289 289 289 297 299 300 301 302 302 303 303 304 303 304 305 306 307
291 290 286 295 301 304 304 305 301 293 287 281 280 280 285 286 291 288 289 289 289 286 283 285 282 284 280 279 279 282 282 278 280 279 279 280 279 284 286 285 285 287 289 288 284 285 285 277 280 285 289 289 289 288 281 285 287 288 289 288 288 285 281 280 278 278 280 273 274 278 288 284 292 293 298 299 302 302 301 300 301 302 303 303 304 304 305 305
288 286 285 297 302 304 303 302 295 290 284 279 281 282 288 284 288 290 290 289 286 285 284 285 286 280 282 280 280 279 281 280 280 279 279 282 282 287 285 287 285 286 287 289 287 287 283 282 274 282 287 289 285 286 285 284 284 283 284 282 286 283 284 285 281 279 279 275 273 277 281 285 288 297 299 301 302 303 301 301 302 302 303 304 304 304 305 305
289 284 286 299 303 303 301 295 289 284 282 285 286 284 285 284 288 289 291 292 288 291 286 285 285 282 283 281 281 281 280 279 280 279 280 281 281 277 286 286 287 287 287 288 286 286 280 283 278 279 284 282 283 284 287 286 288 285 285 283 284 282 281 279 278 282 282 279 276 279 277 283 287 296 301 301 304 303 303 302 302 302 303 303 304 304 304 303
285 279 286 297 301 300 292 284 284 288 285 283 281 286 284 292 288 288 290 291 290 288 292 289 289 287 285 284 281 282 280 280 281 280 281 280 284 284 286 286 288 287 287 281 283 284 284 280 280 280 277 281 285 290 288 291 291 289 289 286 286 284 283 281 277 277 281 282 285 280 276 279 287 294 297 302 303 302 303 303 302 302 303 303 304 304 303 303
287 282 293 297 300 298 289 281 286 285 283 287 291 290 291 289 287 289 288 290 288 292 291 289 289 288 288 288 287 285 281 280 281 280 280 283 284 286 286 287 288 288 289 283 285 287 297 282 283 278 281 282 286 287 289 290 290 287 287 287 285 283 284 283 277 279 281 281 281 279 278 278 288 297 298 301 302 302 303 303 302 302 303 303 303 302 302 301
289 286 289 298 302 298 289 281 282 282 285 289 290 288 292 289 288 286 287 289 289 289 289 289 290 290 288 290 288 286 286 279 284 282 282 283 285 288 287 286 289 287 288 285 285 293 281 279 279 276 278 280 281 284 286 287 288 284 283 284 286 285 283 282 282 282 281 282 282 280 277 280 294 297 299 300 301 301 301 302 303 301 302 302 302 301 300 299
289 290 291 294 299 296 285 288 285 283 285 285 286 285 287 289 291 290 288 288 291 290 289 288 291 291 288 290 288 289 289 285 280 283 283 285 285 288 287 288 288 287 289 292 302 293 284 279 280 274 273 272 273 275 275 278 283 283 284 285 286 287 284 284 280 281 278 280 281 280 279 287 295 297 298 299 300 300 301 302 303 303 302 301 300 299 299 298
288 281 286 288 292 292 291 294 290 287 285 285 284 286 287 286 290 292 292 290 293 295 291 291 290 290 288 289 287 287 288 289 284 281 283 282 284 287 287 287 289 289 297 304 300 292 282 282 281 277 277 275 278 278 281 282 282 282 284 285 285 286 286 286 281 278 279 278 281 282 288 289 291 295 296 298 299 298 299 300 301 301 302 301 300 299 299 298
288 281 282 282 287 289 288 291 289 289 284 288 283 286 284 286 288 289 293 289 296 295 292 290 290 288 288 288 286 286 288 289 289 282 282 283 284 286 287 289 289 293 306 303 297 288 282 282 283 282 281 283 281 282 286 287 285 284 284 285 285 286 286 285 282 282 282 284 279 286 292 290 291 294 296 297 298 299 300 300 301 301 300 299 299 298 300 298
284 285 289 290 284 281 283 284 289 287 288 288 285 288 285 285 287 284 290 293 295 297 288 289 290 291 290 289 288 284 285 285 286 282 290 286 286 288 285 288 287 296 304 294 295 288 282 279 282 283 282 287 287 286 288 287 287 284 284 285 284 285 285 286 285 283 286 283 283 287 292 290 293 295 297 298 299 299 300 300 301 300 300 299 298 297 297 296
294 292 292 294 284 284 284 286 289 288 287 288 286 288 284 284 285 288 289 289 291 290 292 282 288 290 290 290 289 285 285 283 284 287 286 285 285 283 283 286 287 290 295 291 290 287 286 281 282 285 285 287 287 287 288 288 286 286 286 286 286 285 286 288 285 284 286 282 284 289 292 292 294 296 298 299 300 301 301 301 300 299 299 298 297 296 296 295
291 289 287 291 290 289 289 288 287 287 285 291 284 286 286 284 285 288 290 289 282 287 293 288 289 290 290 290 289 287 290 289 289 285 289 288 287 283 281 282 283 290 291 289 289 288 288 279 289 285 284 286 287 287 288 287 286 285 285 285 285 284 284 283 285 287 287 286 287 290 291 288 291 298 298 300 301 301 300 298 298 299 298 297 296 296 295 295
297 299 297 291 287 288 290 288 287 285 283 283 284 286 286 286 286 288 288 292 290 287 290 288 289 290 289 290 289 290 292 292 291 292 292 289 285 288 285 287 286 285 288 289 289 289 288 281 285 283 282 282 286 285 285 286 286 283 284 284 285 285 285 286 284 285 285 284 288 290 288 286 289 298 298 300 300 299 297 298 298 298 298 297 296 295 295 295
299 303 302 295 287 291 286 287 284 283 280 281 286 287 289 288 288 289 282 286 291 292 292 291 290 289 287 288 290 291 294 294 295 296 295 294 294 294 292 293 288 288 286 288 288 285 284 285 285 281 281 277 286 284 283 282 284 284 282 286 287 284 284 286 286 289 288 291 288 286 288 293 295 298 297 297 299 298 298 298 297 297 297 297 296 295 295 295
Wind_Speed
14 16 14 14 14 12 11 10 11 12 12 11 11 11 11 12 11 12 13 14 14 15 15 16 16 15 15 17 17 19 16 9 13 7 4 16 5 11 8 5 5 7 13 0 2 2 2 2 4 1 3 3 1 2 2 1 1 2 2 4 1 4 3 4 4 6 1 2 5 7 3 1 0 2 2 10 11 8 8 7 3 10 10 9 9 15 15 14
13 13 14 15 14 14 13 11 11 12 11 12 11 11 12 11 12 12 12 13 14 15 15 14 14 15 15 15 17 17 13 7 12 12 21 4 8 11 13 11 1 4 10 0 2 2 6 1 2 3 5 2 1 1 1 1 1 3 1 2 7 5 5 5 2 5 0 5 5 6 5 3 2 3 2 5 3 6 9 5 6 11 11 12 13 15 13 14
13 13 14 14 15 14 14 13 11 11 12 12 12 11 11 11 12 12 11 12 13 14 14 14 13 14 14 15 16 15 11 11 6 11 19 14 23 17 14 12 8 11 6 3 3 5 4 9 6 5 1 3 1 2 1 1 3 3 5 3 5 6 4 5 4 5 5 5 8 6 6 3 6 1 0 5 8 4 11 11 6 11 13 13 14 13 13 13
14 13 14 13 14 15 15 15 13 12 11 11 12 12 11 12 12 12 12 12 13 13 13 14 13 14 14 15 15 7 6 5 4 7 3 7 14 18 21 16 13 9 2 1 4 4 2 5 5 5 2 3 1 0 3 2 2 1 2 4 3 3 2 5 7 10 8 2 4 3 4 5 4 1 2 9 9 2 5 10 20 16 19 15 15 14 13 11
14 14 14 14 13 12 13 16 15 14 13 12 11 12 12 12 12 13 12 12 12 12 13 12 13 13 14 14 13 4 6 3 4 1 2 7 7 11 14 17 16 8 5 2 4 0 3 3 4 1 3 2 1 1 2 1 2 3 6 4 5 1 2 6 6 6 2 4 3 2 2 4 2 5 4 10 15 12 13 13 4 19 19 22 18 14 11 11
15 14 14 14 14 14 14 13 16 14 14 13 12 11 12 12 12 12 12 11 11 11 11 11 12 12 13 12 5 1 0 4 1 1 10 8 8 9 11 15 16 9 6 5 4 4 5 1 4 3 1 2 4 4 2 1 1 3 2 3 4 5 5 1 2 3 2 2 4 6 3 1 4 5 5 2 4 5 6 4 7 8 15 13 14 14 12 12
16 15 15 15 15 14 13 13 13 16 15 14 13 12 11 11 11 12 12 12 12 11 12 12 12 12 12 7 2 1 3 9 3 6 13 7 8 7 8 16 16 10 7 5 2 5 2 4 3 4 4 2 0 2 3 0 0 2 4 1 5 4 7 6 6 4 2 1 6 3 1 2 7 6 2 4 5 7 8 11 12 13 14 14 14 11 10 11
16 16 16 15 15 15 14 13 13 14 16 15 14 12 11 11 11 11 11 11 11 12 10 11 11 11 9 3 4 2 1 11 9 6 13 9 8 5 11 11 14 10 9 9 8 6 5 7 6 3 4 7 3 5 0 1 1 3 2 2 4 2 4 4 4 3 1 5 7 4 2 2 1 7 5 4 6 7 10 10 13 13 13 11 11 10 9 10
16 16 15 15 15 15 15 15 13 12 13 14 15 13 11 10 10 10 10 11 11 11 10 10 10 10 7 2 1 4 10 8 2 7 11 8 6 7 11 8 9 14 7 6 4 7 7 4 3 4 4 1 2 3 2 1 5 4 6 1 3 4 5 5 5 3 3 2 0 8 8 10 10 12 8 4 7 9 9 10 12 12 12 11 10 10 10 10
15 16 16 16 15 15 15 15 15 13 13 13 15 14 11 9 9 9 10 11 11 10 10 9 10 9 5 3 2 3 8 7 3 6 9 10 6 7 6 3 11 10 9 5 3 5 5 5 7 4 6 1 3 3 2 5 2 3 3 3 4 8 5 3 3 1 1 3 3 6 5 3 6 2 2 2 8 5 10 10 9 9 10 11 10 10 9 11
15 15 16 16 15 15 15 15 15 14 13 13 15 15 13 9 8 8 9 10 11 11 10 9 9 6 2 3 2 9 6 3 1 5 10 9 6 2 2 6 7 8 8 4 5 5 4 7 3 3 1 3 4 0 1 1 1 3 2 3 4 4 4 6 4 5 3 1 4 13 3 4 8 4 5 4 6 9 11 9 8 7 9 10 12 10 9 9
14 15 16 16 16 15 15 15 15 15 15 14 14 13 14 10 7 6 8 9 10 9 8 8 10 2 3 5 9 13 2 3 6 9 11 6 4 4 5 4 3 8 11 9 5 3 6 5 6 3 3 1 1 0 1 2 1 2 1 3 6 6 4 2 3 1 5 1 7 7 10 7 7 5 5 5 10 13 11 6 7 8 7 9 10 10 8 8
15 15 16 16 15 15 15 15 15 15 15 14 15 13 13 11 4 5 7 8 8 8 9 9 6 2 4 8 13 19 20 17 15 16 14 5 4 4 2 4 1 3 4 7 4 4 2 4 2 5 0 3 3 2 1 1 2 1 2 1 5 5 5 4 1 1 2 3 12 2 4 2 4 1 6 2 12 13 16 4 7 5 5 6 9 8 9 8
15 15 15 15 16 15 15 15 15 15 15 14 14 13 12 11 6 4 5 7 9 8 8 9 2 2 5 8 7 5 6 7 7 10 9 1 1 1 1 0 4 2 3 4 3 5 3 2 6 3 1 2 1 2 2 3 4 3 1 3 0 1 3 2 0 1 4 2 3 3 4 2 1 2 6 5 7 14 13 9 8 8 5 5 6 7 9 8
15 15 15 15 15 15 14 14 15 15 15 15 15 12 10 10 3 2 4 6 8 8 8 5 1 2 2 10 7 15 23 12 10 16 10 2 1 2 2 3 3 3 4 4 3 1 3 4 3 1 1 1 2 1 2 2 4 2 1 3 4 2 4 7 4 3 6 1 4 5 5 3 5 4 7 6 4 9 11 7 7 8 6 5 6 7 8 8
15 14 15 15 15 14 14 14 14 15 15 14 12 10 9 7 1 2 4 4 6 6 3 2 1 2 4 11 6 6 1 2 7 11 9 7 4 3 2 5 3 4 4 1 2 2 3 4 3 6 1 2 6 6 4 1 2 5 2 2 1 0 5 5 1 1 2 5 5 2 5 6 3 5 9 7 6 8 11 10 3 8 7 7 6 7 7 8
15 14 14 14 15 14 13 13 14 14 14 14 12 9 9 6 3 3 3 5 2 0 2 1 1 2 3 3 3 3 3 5 4 2 2 7 8 5 5 4 2 4 4 4 3 5 0 3 0 3 2 3 3 5 3 1 2 1 2 1 3 2 3 2 2 1 4 1 1 4 9 5 7 10 10 9 8 8 12 11 11 9 8 7 7 7 7 8
13 13 14 14 14 13 13 13 13 14 13 13 10 7 4 4 3 3 2 1 1 1 1 2 2 2 12 9 4 2 2 5 3 3 2 1 6 6 3 1 3 7 5 3 2 3 1 2 1 6 1 3 3 6 8 8 7 4 1 1 1 1 3 4 1 1 2 8 9 4 8 4 10 9 9 9 7 7 8 10 12 11 10 8 7 7 7 7
13 12 13 14 13 13 13 13 13 13 12 10 11 5 3 1 2 2 2 1 3 1 1 3 5 5 1 1 2 5 7 6 7 3 2 6 2 3 3 4 7 8 3 3 1 5 1 3 4 4 7 6 7 7 7 3 6 6 5 4 3 3 3 2 3 2 3 7 9 3 9 8 11 7 6 6 3 1 3 5 6 10 9 9 7 8 7 7
14 13 13 13 13 12 13 13 13 13 11 5 4 1 1 0 1 1 3 5 6 6 3 2 13 4 7 2 3 7 10 1 1 4 2 1 8 5 2 2 3 4 6 6 3 4 4 6 9 12 9 7 6 8 8 5 6 4 4 5 1 1 3 4 4 1 3 6 7 1 6 9 9 7 8 9 1 5 5 6 8 7 9 8 9 9 8 7
14 14 14 14 13 13 13 13 13 13 11 5 4 4 3 5 3 4 4 6 10 12 15 8 11 12 7 4 6 10 10 7 2 2 2 2 5 11 2 3 2 3 3 7 7 1 5 4 9 3 6 8 9 7 6 5 2 5 5 4 0 0 0 1 2 8 6 5 5 7 11 9 8 8 7 1 5 10 2 4 7 6 5 6 9 10 8 7
14 14 14 14 14 14 13 12 12 12 11 4 5 5 0 1 1 0 2 3 6 16 15 17 7 11 13 13 5 2 0 3 8 5 5 5 5 11 2 4 4 7 3 4 5 3 6 10 3 5 6 7 6 6 7 7 3 2 3 1 1 2 1 2 4 7 7 7 6 8 11 7 8 8 6 2 4 5 4 3 4 7 5 6 7 7 7 9
14 14 14 14 14 14 13 11 10 10 4 4 5 3 2 2 1 1 1 3 7 7 14 16 11 13 17 11 3 2 1 4 5 4 3 4 4 6 6 5 6 5 4 5 9 6 4 6 6 4 6 9 3 5 7 5 4 5 2 2 4 2 2 0 4 5 7 3 8 6 11 6 8 8 8 6 4 2 5 6 5 9 6 7 5 4 4 8
13 13 13 13 12 12 13 11 6 3 6 9 8 7 1 1 1 4 3 1 5 3 8 10 13 9 12 6 3 9 5 3 3 4 4 4 8 5 6 5 6 6 8 5 7 9 5 1 8 7 7 10 7 5 8 7 4 0 4 3 1 1 0 3 1 2 5 10 8 12 7 4 4 6 4 5 5 5 7 8 3 3 6 7 7 5 3 7
12 11 11 10 11 10 10 9 3 5 8 10 4 1 3 3 0 2 2 3 2 6 4 3 5 5 6 4 2 3 2 2 7 3 1 4 5 6 4 3 5 5 5 6 6 6 5 2 8 10 4 5 8 6 7 9 6 1 4 6 5 4 7 4 3 3 4 2 3 9 5 3 2 5 6 4 4 6 7 7 4 2 6 6 7 5 3 6
10 9 9 8 8 6 5 4 3 3 6 4 2 2 3 3 4 3 3 1 5 3 3 6 7 8 7 3 5 4 3 4 7 10 3 3 2 4 3 3 3 8 6 8 7 3 5 2 9 10 7 5 5 5 6 8 7 5 6 6 5 8 8 6 4 7 1 4 7 1 6 2 2 6 5 5 5 8 6 8 7 5 5 4 7 2 3 9
9 8 6 7 6 5 3 3 3 5 5 2 1 4 2 3 3 5 2 1 3 4 7 1 6 1 6 8 9 5 2 6 1 2 4 3 5 1 9 4 2 2 4 3 2 4 2 4 5 6 8 8 5 5 5 9 9 4 2 9 8 10 9 6 6 4 5 0 3 2 2 5 3 5 5 6 6 7 5 6 6 4 6 7 6 4 1 7
8 7 6 5 5 8 1 3 6 6 3 2 3 2 4 4 5 3 1 1 2 5 3 2 5 3 2 8 12 9 3 2 5 4 5 4 2 1 4 6 6 8 3 5 10 2 8 5 7 6 5 6 8 4 7 8 7 4 3 9 10 12 9 7 5 4 2 5 0 4 0 4 0 2 6 9 9 7 8 8 8 7 5 6 7 8 5 6
8 7 5 2 7 10 5 1 3 4 3 4 4 3 3 3 2 4 5 3 0 1 3 8 4 3 1 8 8 12 1 1 0 4 3 0 2 3 3 6 7 8 3 8 6 1 0 8 9 10 7 8 4 6 11 10 5 3 5 4 4 4 3 5 4 4 1 2 4 7 3 3 2 5 9 7 7 10 10 9 8 7 6 7 3 8 8 6
9 9 8 8 4 2 2 2 2 4 1 1 3 3 3 2 3 2 3 4 1 1 2 1 4 6 5 11 6 8 3 2 0 3 3 3 4 1 1 5 5 6 2 2 5 6 1 1 11 6 8 4 5 4 10 8 3 5 10 7 3 5 3 3 5 4 3 1 5 6 7 5 3 9 12 13 11 14 9 7 6 5 6 10 4 5 4 6
9 9 9 4 2 2 2 2 3 0 2 2 3 2 4 1 2 2 3 4 2 0 2 3 3 9 11 12 9 4 4 2 2 7 6 3 3 0 4 2 3 4 4 3 4 3 0 3 3 2 7 3 6 4 2 4 5 10 3 4 6 2 3 3 3 3 2 4 5 6 11 6 7 1 8 7 1 11 16 18 14 13 9 12 9 8 7 6
9 8 7 1 2 2 2 2 2 1 2 2 1 3 3 4 4 3 4 3 2 1 4 4 3 7 11 6 6 8 7 1 1 6 11 9 6 7 8 7 6 6 5 5 5 0 2 3 2 1 7 12 4 8 1 1 0 5 5 4 8 2 2 2 1 1 3 3 1 2 5 3 6 3 2 3 2 11 10 12 14 13 12 11 11 10 7 6
9 6 9 4 3 1 2 1 2 0 1 2 6 1 2 2 3 4 3 5 3 3 2 4 5 8 10 6 6 8 4 5 2 3 8 2 9 4 1 4 5 6 6 2 4 4 4 2 2 1 2 4 11 11 3 2 3 6 8 7 6 3 4 4 2 0 2 4 2 0 5 3 1 1 2 3 3 6 12 12 13 13 13 12 12 11 9 7
12 9 3 2 3 4 2 1 2 1 2 2 6 2 3 2 2 3 2 1 3 4 4 1 7 5 10 9 6 9 4 3 5 6 10 7 9 10 6 1 8 3 6 5 7 7 5 5 8 4 2 2 6 6 10 6 7 6 4 8 7 5 4 4 3 5 5 4 3 1 6 5 4 1 5 8 7 9 12 13 12 11 13 12 10 10 11 9
15 7 1 3 2 3 5 4 2 1 4 4 4 2 4 3 1 2 1 5 3 5 3 3 7 7 5 1 1 6 4 2 2 6 7 12 12 10 10 8 1 5 4 10 4 2 11 1 5 7 3 8 8 3 6 7 5 2 3 7 5 8 6 2 4 4 4 3 1 2 3 1 1 4 3 1 6 12 14 14 14 13 11 12 10 8 8 8
9 3 0 2 0 1 3 2 3 2 1 4 2 3 3 1 2 3 1 6 5 6 9 2 5 6 3 2 1 10 5 2 4 6 1 7 5 9 4 3 6 5 7 7 3 3 3 4 1 3 3 9 10 7 4 7 5 4 6 9 5 4 7 6 2 1 3 3 2 1 2 2 1 1 6 7 9 11 13 14 14 13 12 12 10 8 8 7
4 4 1 2 1 2 3 5 4 2 1 3 0 1 2 2 2 3 4 8 10 9 4 6 5 4 7 5 4 8 4 3 3 5 5 4 2 6 7 3 5 3 7 9 1 2 9 3 2 5 5 5 4 13 8 7 7 6 6 8 3 3 4 4 3 1 2 4 3 2 2 1 2 2 5 8 10 8 11 12 13 15 13 12 11 10 9 9
4 2 2 1 3 1 3 3 1 0 2 1 3 2 1 2 1 3 5 10 10 5 2 1 0 6 5 3 4 10 3 4 5 2 4 6 1 4 5 4 4 7 6 0 7 3 4 2 4 6 11 6 2 4 4 3 3 10 7 7 9 4 8 1 4 2 2 1 2 3 2 2 5 3 8 14 15 14 12 13 13 15 14 13 12 12 10 9
1 0 1 3 4 2 1 3 1 1 3 1 2 3 2 3 4 7 7 8 7 7 2 2 1 1 5 3 2 3 4 3 3 3 7 4 2 5 9 4 4 6 8 6 3 1 1 2 1 1 8 4 5 7 9 9 1 4 5 9 0 3 1 5 5 4 6 4 2 2 2 5 7 6 15 14 14 14 14 13 13 14 12 13 12 12 11 9
2 1 1 3 2 1 1 1 2 2 3 2 1 1 2 6 6 9 6 5 5 2 2 1 1 2 3 3 4 6 1 5 6 2 2 2 2 1 7 5 5 5 6 3 2 2 1 1 2 2 2 5 7 6 10 10 9 3 3 5 2 1 2 6 1 3 3 5 4 4 2 6 7 7 13 15 14 13 12 12 11 11 12 11 12 12 11 10
0 2 1 2 2 0 2 2 1 3 3 0 1 3 3 3 7 8 8 7 5 6 7 2 2 1 2 3 1 2 2 2 3 2 1 4 4 2 4 5 7 8 2 0 3 1 2 1 4 1 3 6 4 2 5 9 9 7 8 7 9 7 5 8 8 3 3 5 4 5 5 6 6 2 9 10 11 12 12 13 11 11 11 12 11 11 11 10
1 1 2 4 3 0 2 3 2 0 1 1 1 2 3 6 6 10 7 7 8 6 4 2 1 1 1 2 3 2 3 3 1 2 0 5 3 1 4 8 10 8 7 5 5 3 4 3 3 1 4 5 3 1 3 11 11 9 10 7 8 4 6 6 8 5 4 0 4 3 2 4 2 3 1 9 10 10 11 13 12 11 12 11 11 11 10 12
4 0 4 4 3 1 3 2 0 1 1 2 3 5 2 3 5 5 9 9 4 2 0 0 1 1 1 1 0 2 5 1 3 2 1 3 2 5 5 10 9 10 8 2 3 4 3 1 3 3 5 5 3 3 1 3 8 3 5 2 7 6 6 7 5 7 6 4 2 0 2 3 3 2 3 9 10 10 10 12 14 11 9 10 11 11 11 11
0 1 2 1 1 1 2 2 2 3 2 3 3 4 3 4 3 5 6 6 2 3 1 1 2 2 0 1 1 2 2 3 1 4 1 1 1 5 8 7 12 6 9 6 6 4 3 2 6 2 1 1 5 3 1 2 1 2 4 3 6 4 4 2 5 1 4 7 8 7 7 3 2 2 6 10 12 12 12 11 14 13 10 10 11 10 10 11
0 1 2 3 3 2 0 1 2 1 3 5 4 3 4 4 8 13 9 6 3 3 2 1 0 1 1 0 1 2 2 2 1 2 3 3 2 1 6 10 8 6 5 7 7 6 3 3 4 4 7 7 7 9 6 3 7 2 0 3 4 9 7 4 4 2 4 1 4 3 1 4 2 2 9 11 13 11 11 12 10 13 13 12 10 11 12 12
2 0 2 3 2 2 0 0 1 2 3 2 3 2 3 6 5 6 9 8 5 2 1 2 2 2 2 2 2 2 2 1 2 3 3 3 2 0 5 9 8 5 5 12 8 9 2 1 3 6 7 7 6 4 2 2 4 4 4 6 5 4 7 5 5 5 7 3 5 3 6 7 5 10 12 15 15 16 16 15 14 13 13 13 12 11 11 11
1 0 0 2 3 0 2 1 2 3 2 1 2 3 3 4 6 6 3 0 1 2 1 1 1 3 4 3 2 2 0 2 2 5 5 5 4 1 1 12 8 9 9 8 12 6 4 3 4 6 5 6 5 1 0 1 4 6 5 6 7 9 5 8 8 8 6 10 5 0 8 13 13 12 13 14 13 13 13 14 14 13 13 13 12 12 12 11
0 1 2 2 1 2 0 2 6 6 6 2 3 2 6 5 4 4 5 2 4 1 2 1 5 4 2 1 0 2 1 1 1 4 1 2 2 1 3 1 6 9 9 4 6 4 5 4 3 4 5 0 1 1 2 2 0 2 6 8 8 8 7 9 7 4 10 8 9 10 14 12 13 18 20 20 20 20 19 16 13 13 13 13 14 14 14 13
2 1 2 0 1 1 4 2 2 6 8 7 3 3 3 2 5 2 1 5 5 3 3 2 6 7 5 3 1 2 0 3 0 1 3 4 3 3 1 1 2 2 5 4 4 1 4 3 4 4 3 1 4 2 1 3 1 2 1 2 3 9 12 11 4 3 7 2 4 16 17 14 10 16 15 13 10 12 12 11 13 15 16 15 16 15 15 14
1 2 2 1 1 4 4 2 2 2 4 3 2 3 2 1 4 6 2 1 2 2 2 2 5 7 4 3 1 3 1 1 2 2 2 3 0 0 3 4 2 1 3 5 5 2 4 3 6 3 3 1 3 4 5 4 1 1 2 2 2 3 3 2 4 3 6 7 1 12 14 6 1 8 11 10 11 11 12 15 18 16 16 17 17 16 15 14
3 2 1 4 3 4 3 2 2 2 1 1 1 3 0 1 3 2 5 2 2 1 2 3 3 7 2 5 4 2 1 2 2 1 3 4 6 6 5 3 5 5 4 2 1 1 3 1 2 3 5 1 2 4 4 5 4 2 1 2 2 5 6 2 3 4 5 6 7 9 5 4 3 10 12 13 14 16 18 18 17 15 16 17 17 16 15 14
4 2 3 2 2 2 3 3 2 0 1 2 1 2 1 3 3 4 4 3 3 4 2 2 2 4 5 8 6 5 3 2 2 2 2 5 1 2 1 2 4 9 6 5 1 5 4 6 4 2 5 2 1 3 4 2 3 1 4 2 3 3 2 0 2 1 1 14 13 9 12 7 12 15 17 15 17 16 15 17 16 15 16 17 18 17 16 14
Wind_Direction
308 303 297 296 298 292 297 298 301 303 305 307 306 309 312 318 316 315 317 317 320 320 318 319 318 318 322 323 324 323 338 335 315 313 301 243 177 237 209 231 2 242 198 28 31 101 29 53 103 18 91 100 251 131 220 88 134 66 124 119 201 199 154 208 185 191 208 254 293 332 349 75 358 48 131 77 50 72 78 75 55 47 55 81 104 104 120 126
315 310 304 297 294 296 292 291 294 298 301 301 303 302 309 313 312 315 320 318 318 317 320 318 319 318 321 325 326 331 341 318 303 285 246 198 221 208 228 238 11 81 139 166 131 128 118 112 153 108 123 122 316 114 108 219 132 120 109 114 219 188 238 165 208 229 339 272 276 301 294 202 172 128 216 103 112 111 84 56 84 87 80 89 102 117 126 130
321 317 308 303 298 294 293 287 286 291 294 295 297 303 306 310 312 312 316 319 318 321 319 321 321 320 326 326 324 343 342 315 298 265 270 196 234 218 219 219 188 147 150 155 198 152 157 181 162 110 67 100 2 158 118 224 149 221 121 220 243 211 235 221 218 256 211 270 294 309 318 158 138 110 103 139 138 123 145 130 122 128 132 128 123 126 132 134
323 317 312 311 304 298 295 291 286 280 283 288 292 298 302 306 308 314 317 319 318 319 321 324 323 325 323 326 331 352 16 288 275 245 289 250 232 227 214 203 179 168 88 33 165 177 135 94 121 108 100 95 287 82 141 237 132 274 135 197 224 214 195 256 221 243 261 217 264 293 304 137 165 146 101 139 108 196 254 200 156 164 151 142 134 134 137 137
319 318 315 310 305 297 294 298 291 284 278 283 288 293 298 302 309 311 316 316 319 322 320 324 327 323 324 322 343 32 323 9 268 214 289 316 250 233 213 204 171 161 151 138 99 67 111 124 118 59 98 169 355 59 250 256 187 108 206 192 209 136 221 248 228 237 228 214 256 347 102 171 125 90 132 169 159 194 198 201 244 144 151 147 144 141 136 137
315 315 314 311 307 305 297 286 285 283 284 282 283 288 294 300 307 313 314 315 316 321 321 328 325 326 323 345 351 89 114 159 283 29 337 326 302 263 207 183 161 139 133 130 143 147 118 45 91 132 79 96 176 144 269 191 120 238 312 246 233 227 236 229 222 223 112 331 316 313 236 80 146 121 165 258 313 351 54 83 119 136 130 122 122 130 135 139
311 312 313 312 309 306 299 290 290 290 279 275 276 281 290 298 304 309 312 319 316 318 326 325 327 322 333 8 334 120 213 284 336 253 338 347 329 304 173 161 141 136 144 140 148 147 151 128 96 159 104 88 300 167 253 125 34 130 245 293 298 204 233 246 267 310 343 298 272 225 29 167 138 125 133 29 352 69 62 105 115 116 116 124 127 126 127 134
308 308 309 308 308 307 304 297 287 284 291 281 276 280 285 292 301 307 315 316 315 314 318 320 321 323 348 15 360 311 272 249 260 313 343 355 24 70 138 137 140 139 147 174 166 158 138 143 160 149 92 148 210 150 190 126 20 176 278 257 261 281 238 267 264 297 216 245 266 30 95 150 182 136 96 17 57 70 86 99 111 113 114 116 121 120 116 120
305 305 305 305 305 305 305 302 294 285 280 287 275 274 280 287 296 305 311 312 314 316 317 319 321 325 47 82 136 320 243 247 348 342 12 12 28 91 129 131 149 146 163 149 187 165 136 223 138 178 211 141 187 134 260 146 307 187 216 203 280 278 286 280 299 270 216 265 99 74 72 93 98 86 55 336 62 86 85 94 106 109 110 115 111 115 118 126
298 301 301 301 302 302 303 303 302 292 279 276 280 269 271 283 292 301 308 314 312 313 312 321 323 337 36 9 305 230 265 200 355 9 10 7 18 108 353 134 155 136 126 178 117 136 172 197 162 190 127 116 147 178 132 125 220 170 225 223 251 268 300 285 219 109 182 210 178 104 96 59 337 88 112 43 351 80 88 95 99 109 110 114 116 115 120 127
292 294 298 298 299 300 300 301 302 296 286 274 273 272 269 275 287 296 309 307 309 306 310 315 317 333 51 69 263 228 256 107 11 1 357 359 6 78 13 169 158 133 126 142 184 171 181 156 164 128 46 220 147 292 163 217 160 204 216 302 291 296 249 247 295 269 167 302 125 125 128 69 5 37 107 72 36 61 98 102 100 93 109 115 117 119 122 124
289 290 292 295 295 297 298 298 300 298 289 278 271 271 266 268 275 295 302 303 306 310 306 315 316 330 253 250 239 225 287 337 336 333 329 339 309 211 170 167 199 146 141 164 197 189 160 156 142 116 171 147 73 160 269 250 23 279 7 334 303 344 352 274 206 267 174 231 159 138 80 25 0 121 103 123 102 89 59 39 83 94 106 116 118 121 125 131
287 288 288 291 292 293 296 296 296 296 292 287 277 266 264 269 263 283 297 308 299 302 314 316 321 86 350 285 240 249 275 283 305 313 307 295 260 260 174 158 159 117 129 143 164 212 224 128 110 84 157 112 171 118 215 45 283 337 41 139 341 360 338 288 168 221 113 203 177 183 100 285 322 71 124 166 129 129 122 167 121 103 108 113 121 122 123 127
282 284 285 287 289 291 293 296 294 295 294 284 271 272 268 265 259 264 289 294 304 302 309 311 343 307 275 254 278 277 263 268 293 304 276 319 144 277 123 149 156 101 67 92 153 171 182 66 93 112 152 108 146 271 38 339 19 173 263 60 92 2 263 293 50 194 119 309 188 49 143 259 208 147 144 159 166 137 132 150 137 122 115 123 119 117 120 121
281 280 283 284 287 289 292 294 295 295 296 286 271 260 259 258 218 254 287 309 304 305 305 15 51 53 270 267 275 263 253 259 272 255 246 219 179 319 113 101 128 142 100 110 120 187 121 70 63 46 269 281 67 39 354 22 5 7 86 294 316 165 278 299 268 144 132 326 78 86 71 175 173 160 143 165 156 125 117 97 116 123 137 136 120 119 119 120
280 280 282 283 284 287 288 291 293 295 296 296 282 272 255 249 218 265 279 272 289 303 33 347 310 155 326 286 259 293 335 148 247 239 231 177 183 213 205 131 104 84 107 37 109 101 143 122 128 186 142 31 71 98 49 49 335 352 121 264 254 158 262 349 34 141 119 123 22 157 158 122 143 154 151 166 141 128 117 122 113 131 141 142 130 125 124 124
283 277 278 280 282 284 287 287 289 292 292 293 283 268 258 242 218 241 267 288 315 323 144 241 109 169 200 224 297 319 246 243 268 331 119 191 175 168 108 100 104 85 85 65 97 94 327 130 218 68 36 133 156 97 86 359 312 262 10 165 212 173 266 281 286 344 43 90 120 26 122 214 151 157 149 151 150 144 141 146 156 155 148 141 135 130 128 124
283 278 277 278 281 281 283 286 285 286 290 288 271 248 223 215 237 254 300 2 54 154 193 241 246 239 270 271 295 234 301 292 355 279 193 257 159 149 127 115 86 110 99 49 14 118 220 136 82 184 74 125 111 114 156 200 183 184 108 89 292 275 207 236 148 199 43 20 86 72 93 107 140 150 140 153 158 152 161 159 156 155 149 144 140 132 124 121
289 283 283 282 281 281 281 283 284 283 284 287 277 243 245 216 61 77 122 163 93 22 15 222 160 167 247 276 327 345 331 284 307 267 236 115 140 143 90 82 113 117 114 102 263 126 73 64 49 102 180 174 183 152 153 195 155 171 160 168 162 143 224 241 257 315 110 72 53 75 139 137 139 138 92 52 6 322 175 165 143 141 141 139 133 126 126 121
296 291 287 285 283 281 282 279 278 279 281 278 237 163 32 41 9 308 194 194 211 205 213 169 208 315 329 356 29 323 275 293 209 243 184 206 121 126 101 112 61 69 120 166 148 194 129 151 185 196 185 164 150 151 163 171 150 122 89 101 154 182 288 278 283 272 58 86 48 125 117 129 120 107 115 138 84 35 340 285 159 136 138 135 133 122 106 74
292 289 288 286 284 282 281 280 279 276 268 246 187 174 205 177 142 243 173 223 224 234 253 244 215 241 251 322 328 3 9 319 23 304 230 133 132 128 203 122 107 97 163 153 142 240 97 169 222 179 153 160 167 155 114 90 68 127 109 98 58 121 214 2 295 342 358 103 69 107 104 86 92 85 105 120 80 56 116 276 332 111 112 110 107 104 90 107
288 282 281 279 281 284 282 279 273 266 262 225 172 180 86 238 123 103 95 285 229 229 240 254 237 269 276 267 280 311 338 304 317 278 275 148 186 161 230 124 140 159 175 123 78 113 173 207 186 198 163 131 129 136 140 138 116 80 146 138 84 282 250 299 348 357 350 77 107 122 92 75 80 83 76 55 105 110 144 88 322 16 84 44 71 83 109 100
293 287 282 283 282 284 282 277 269 277 280 166 174 159 205 209 26 283 175 262 287 211 220 235 243 242 262 273 259 211 238 233 252 293 219 143 154 181 139 124 143 150 145 155 156 128 169 259 226 168 137 122 76 126 126 95 82 113 91 101 205 230 103 316 314 352 14 89 143 113 92 85 80 67 67 57 67 54 91 73 79 75 61 76 16 28 90 95
299 294 286 281 282 279 282 280 277 294 234 194 177 177 162 131 46 5 63 209 284 282 200 214 209 225 236 227 204 169 174 243 167 266 272 141 154 166 127 142 136 137 177 156 144 160 176 231 170 133 149 147 135 137 129 130 158 310 158 153 141 212 204 160 219 44 57 56 106 96 75 72 90 115 86 58 82 87 86 96 83 31 91 69 28 28 48 103
306 295 291 288 286 294 294 289 220 222 211 195 162 196 258 275 353 26 100 333 327 278 190 221 179 237 231 131 119 145 222 268 213 248 280 152 148 126 190 161 117 188 145 152 109 133 238 275 133 134 138 141 129 138 160 134 150 243 247 182 184 122 98 82 73 70 34 100 163 132 114 149 117 118 124 138 125 114 115 121 142 90 73 100 95 350 79 101
305 306 298 287 278 296 274 223 265 197 156 135 92 163 247 253 230 191 106 96 288 248 115 236 143 249 137 218 143 190 89 270 200 214 213 233 236 141 121 167 137 186 153 137 157 172 196 136 145 153 145 160 138 146 203 145 161 137 251 174 141 124 123 122 108 86 92 162 200 85 129 210 125 153 134 133 129 125 109 132 145 143 140 139 113 18 140 117
323 308 277 257 245 139 146 213 216 100 83 243 74 287 297 290 153 161 93 343 313 196 163 139 159 259 158 178 157 138 117 257 112 160 206 267 180 202 141 199 86 82 156 148 72 238 149 137 146 134 149 159 142 167 207 148 130 192 245 159 122 124 136 173 143 131 181 133 51 65 100 132 151 188 144 142 140 131 140 146 152 154 137 149 117 125 250 115
337 315 303 243 230 171 1 138 169 122 140 64 264 262 268 273 149 212 92 154 274 142 152 201 226 151 161 165 156 171 201 137 132 227 198 226 152 41 117 183 153 151 169 121 179 265 166 161 155 161 159 165 188 189 170 156 136 211 197 162 153 153 175 169 148 125 150 114 112 203 328 65 72 139 138 154 150 170 185 169 170 157 143 133 135 128 116 89
12 26 42 26 141 129 133 253 101 139 110 201 246 254 252 245 211 127 133 157 66 90 107 113 242 109 40 136 166 206 323 275 80 173 163 107 234 139 118 200 143 148 134 139 156 215 299 169 173 156 160 196 187 178 155 161 140 262 156 107 72 64 90 143 123 93 37 85 234 193 165 117 278 168 163 178 182 185 188 176 169 155 136 93 12 111 110 96
21 29 58 76 82 61 76 342 293 76 113 335 270 250 253 169 160 120 63 278 185 337 200 171 161 186 149 149 191 211 219 296 341 135 126 150 210 16 8 150 123 127 95 87 157 197 168 179 157 141 190 166 143 169 165 171 169 123 121 112 62 42 66 36 51 93 59 292 249 199 183 145 223 193 178 174 203 188 156 144 153 148 136 104 93 78 95 115
8 22 27 70 50 73 95 288 204 123 36 315 283 236 152 43 165 164 171 244 30 58 57 149 178 124 146 156 177 194 204 283 350 161 138 132 162 65 125 90 53 76 73 97 180 230 68 75 136 230 143 111 117 123 313 184 133 127 148 134 116 36 29 38 346 34 170 260 257 201 183 173 205 267 199 208 16 173 167 170 161 155 152 128 143 140 135 126
350 7 329 21 216 208 191 234 153 58 28 292 1 120 156 146 16 161 210 347 82 240 149 167 130 146 170 183 137 150 172 127 250 170 158 168 155 159 192 165 149 124 164 165 211 331 239 144 246 248 164 133 130 115 210 30 41 105 92 100 140 230 77 249 46 267 205 177 311 304 140 25 248 215 284 200 231 159 168 158 153 148 142 134 137 136 136 135
333 303 286 271 240 207 246 220 114 96 93 64 71 24 140 109 188 247 331 331 85 26 287 128 163 157 168 154 185 166 158 164 210 163 137 118 147 194 279 144 183 130 165 218 116 147 281 291 331 291 155 170 140 145 179 152 228 129 138 152 141 150 177 197 266 213 305 288 272 278 196 213 252 317 234 273 292 141 132 138 139 142 137 138 144 139 136 135
318 316 280 238 228 216 224 174 205 193 89 59 104 215 29 85 249 41 270 268 332 335 328 101 147 142 157 171 185 155 163 267 150 173 160 155 159 181 224 263 146 97 85 162 158 175 136 213 252 163 201 166 151 149 171 163 146 194 122 143 172 131 159 197 183 185 201 197 305 284 120 226 149 189 293 267 251 131 124 125 129 132 132 134 140 137 132 126
317 308 234 305 306 256 220 225 217 209 131 98 130 185 171 217 57 261 289 349 344 323 337 316 141 137 181 286 119 170 146 193 187 141 165 154 190 184 186 188 246 111 133 140 240 111 198 175 250 196 181 161 157 170 130 105 94 200 162 77 109 212 134 138 202 144 177 126 69 184 190 323 41 319 282 147 144 125 128 129 132 134 132 134 131 132 125 120
336 319 101 260 238 263 165 174 162 125 117 100 149 217 235 345 206 11 14 330 342 347 326 31 121 125 178 176 67 179 236 126 205 134 145 175 156 179 178 160 179 187 149 162 192 132 94 219 286 227 75 165 164 153 187 142 179 224 111 203 204 159 102 91 62 48 99 58 221 96 14 223 168 280 115 152 130 137 137 139 137 135 135 132 133 131 125 128
360 335 38 302 269 226 169 157 183 174 82 89 116 295 358 329 262 277 323 333 328 311 303 125 198 135 179 189 157 179 201 88 161 120 183 136 171 186 175 197 155 152 175 128 275 193 144 226 277 135 199 253 199 169 170 189 138 111 183 216 122 114 104 131 201 349 54 175 241 92 194 192 99 275 166 151 144 155 146 144 140 140 142 140 142 141 140 142
334 315 259 354 316 220 174 168 184 10 106 130 244 324 53 327 158 273 307 320 322 324 280 134 269 101 198 121 171 164 210 121 189 102 166 188 226 170 149 153 198 166 195 240 139 239 113 93 256 198 182 182 96 126 167 230 151 164 188 176 147 224 232 299 98 213 124 263 263 316 218 226 196 213 168 173 167 171 154 144 144 148 152 146 145 141 139 133
297 27 18 358 341 80 19 141 205 71 65 153 339 321 18 282 295 287 303 308 297 279 291 240 142 272 144 141 171 118 137 152 173 137 129 225 128 200 172 150 186 211 174 146 83 165 62 129 296 280 170 174 142 143 196 202 309 62 96 169 193 109 140 121 201 168 130 222 81 299 135 246 198 199 194 188 174 166 153 154 157 153 148 147 145 144 142 138
10 38 333 346 24 58 219 284 298 44 71 141 342 294 10 294 291 293 288 323 318 341 258 301 341 94 120 202 153 146 73 118 149 213 96 186 101 301 185 153 154 192 178 184 134 169 86 107 143 274 293 140 190 194 205 169 175 146 128 185 215 24 223 103 41 121 168 161 178 154 248 264 249 194 186 189 173 171 159 150 150 149 147 145 144 143 139 136
357 104 278 319 342 109 308 299 50 39 84 148 325 287 305 291 325 286 296 259 239 240 229 272 328 61 173 106 124 143 93 107 120 121 130 162 142 139 246 175 143 169 104 40 125 181 75 100 180 311 123 196 245 236 149 167 171 174 158 189 168 122 128 161 233 38 96 106 196 135 231 264 264 297 195 164 163 158 158 149 146 143 143 147 144 141 137 131
60 48 319 322 304 324 35 50 4 357 95 107 230 302 303 322 298 290 301 296 225 249 207 224 251 143 106 79 170 108 112 104 136 97 297 153 207 131 210 155 154 147 139 177 171 239 145 163 97 148 192 197 209 147 221 173 169 180 164 206 180 159 124 150 193 220 71 99 114 155 114 271 253 300 184 151 148 146 145 143 141 144 145 143 141 137 135 134
33 257 258 274 310 355 29 50 313 5 357 233 289 279 277 275 261 289 317 303 306 254 300 113 220 106 241 101 101 103 130 101 151 159 206 125 211 208 205 161 145 149 128 204 140 200 135 94 151 287 298 300 315 296 46 189 161 153 231 106 139 196 187 171 166 180 151 146 94 38 178 251 295 350 135 127 130 133 139 143 142 144 140 140 137 132 129 121
317 280 321 292 7 73 16 57 11 347 307 310 274 259 253 256 244 284 247 268 265 332 351 320 349 83 182 74 115 128 183 107 275 133 34 269 153 213 135 164 155 159 156 218 161 211 143 281 122 113 98 333 349 4 31 18 178 161 182 201 186 139 91 156 104 75 148 210 162 144 224 259 304 34 120 127 135 143 147 151 147 144 143 139 134 130 126 125
257 237 215 303 2 51 106 330 1 333 312 311 309 301 304 270 234 231 233 269 275 257 351 326 242 301 17 349 85 100 48 134 143 250 136 164 227 90 162 154 191 157 177 181 164 158 150 193 132 147 161 165 178 185 218 214 207 245 200 153 174 158 134 114 163 147 184 257 133 146 206 260 68 112 139 144 144 146 152 153 154 146 145 143 138 136 138 139
357 10 312 341 8 38 313 260 207 263 285 306 304 264 261 272 280 247 207 250 237 292 210 256 334 87 24 45 40 60 46 45 110 206 136 209 265 319 166 167 172 177 202 155 143 135 165 123 136 149 153 177 195 209 246 126 116 186 210 165 192 177 180 140 114 131 190 182 183 229 165 157 171 172 166 165 162 162 161 161 161 153 150 146 145 146 146 146
298 110 185 318 342 157 262 240 252 235 260 301 307 357 281 261 266 293 195 54 325 345 335 60 343 38 360 57 37 54 23 97 53 127 188 160 237 228 165 166 183 184 169 154 154 94 94 162 206 151 182 200 175 185 238 110 190 197 152 199 183 166 166 138 160 211 164 108 243 247 172 143 201 179 175 169 167 163 163 161 159 154 150 146 145 143 141 141
75 241 152 211 121 250 306 260 210 235 237 189 268 245 271 291 326 9 322 33 325 345 70 331 48 67 57 55 125 93 17 65 75 164 223 219 122 271 95 10 167 197 157 151 179 128 136 169 243 134 226 327 168 225 241 105 105 240 192 169 185 188 177 178 200 171 146 179 211 190 179 179 190 190 185 179 173 171 168 164 153 144 143 148 146 145 150 152
228 258 229 154 225 265 187 230 217 237 250 199 246 250 301 305 340 360 317 313 348 337 40 50 354 359 354 346 118 113 137 104 305 300 177 185 162 134 116 44 284 246 161 126 180 163 118 213 183 164 151 33 6 26 53 115 42 58 5 222 195 174 189 192 162 198 172 164 194 161 179 194 192 185 177 169 155 152 150 142 143 155 160 151 152 153 154 156
356 350 313 344 206 272 290 279 254 299 287 248 217 242 215 308 351 342 326 304 345 314 23 78 342 350 344 15 81 84 130 150 154 147 214 125 86 87 188 185 138 81 144 157 162 274 146 258 137 121 130 186 348 34 58 69 73 126 346 353 94 136 76 91 115 121 94 41 73 157 167 197 301 144 146 145 146 139 142 158 164 163 157 158 154 157 157 158
305 288 262 301 307 278 265 263 296 274 303 326 192 276 11 300 353 334 286 239 199 255 1 21 10 342 357 11 59 65 238 178 180 203 199 157 168 216 137 258 136 139 162 124 190 109 150 220 48 88 136 280 344 57 61 72 80 104 21 7 65 143 160 200 144 206 143 152 123 122 138 217 240 142 137 148 155 160 165 166 166 168 163 156 158 158 160 158
310 256 262 252 266 317 333 303 309 31 319 232 186 281 7 303 316 352 339 297 233 233 246 64 23 34 326 19 14 340 306 186 225 238 201 205 179 111 129 145 139 155 161 179 158 139 151 127 147 117 132 259 268 82 96 66 76 333 235 231 233 295 304 297 347 111 187 140 128 150 212 203 160 149 145 160 167 169 167 173 170 163 163 160 160 163 164 160